User: anonymous   Login
Location: Unspecified
(0.0000°N, 0.0000°E)
Time: 09:20:25
(UTC+00:00)
Language:

Orsted - Orbit

View from above orbital plane
View from above orbital plane
View from above satellite
View from above satellite

Ground track
Ground track

The orbit data is extracted from the following two-line orbital elements,

1 25635U 99008B   18018.58642861 +.00000066 +00000-0 +23765-4 0  9994
2 25635 096.4545 238.9055 0137295 280.8664 077.7110 14.48047649997127
Epoch (UTC): 18 January 2018 14:04:27
Eccentricity: 0.0137295
inclination: 96.4545°
perigee height: 634 km
apogee height: 829 km
right ascension of ascending node: 238.9055°
argument of perigee: 280.8664°
revolutions per day: 14.48047649
mean anomaly at epoch: 77.7110°
orbit number at epoch: 99712

The dashed part of the orbit path shows where the satellite is in the earth's shadow,  

DLR